Dew Point Data


Current

Temp 49.0 F. Dew Point 45.0 F.


Dew Point Comfort Scale

dewpoints

Date, Time Temperature Dew Point
Sat Apr 10 00:08:04 2021 60.0 F. 55.9 F.
Sat Apr 10 01:08:05 2021 60.0 F. 55.0 F.
Sat Apr 10 02:08:05 2021 61.0 F. 55.9 F.
Sat Apr 10 03:08:05 2021 63.0 F. 55.0 F.
Sat Apr 10 04:08:05 2021 62.0 F. 55.0 F.
Sat Apr 10 05:08:04 2021 62.0 F. 55.0 F.
Sat Apr 10 06:08:04 2021 62.0 F. 55.0 F.
Sat Apr 10 07:08:04 2021 63.0 F. 55.0 F.
Sat Apr 10 08:08:04 2021 63.0 F. 55.0 F.
Sat Apr 10 09:08:05 2021 62.0 F. 55.9 F.
Sat Apr 10 10:19:07 2021 63.0 F. 57.0 F.
Sat Apr 10 20:08:07 2021 54.0 F. 42.1 F.
Sat Apr 10 21:08:05 2021 54.0 F. 42.1 F.
Sat Apr 10 22:08:05 2021 52.0 F. 45.0 F.
Sat Apr 10 23:08:05 2021 52.0 F. 45.0 F.
Sun Apr 11 00:08:04 2021 51.0 F. 45.0 F.
Sun Apr 11 01:08:05 2021 51.0 F. 45.0 F.
Sun Apr 11 02:08:04 2021 50.0 F. 46.9 F.
Sun Apr 11 03:08:05 2021 50.0 F. 48.0 F.
Sun Apr 11 04:08:05 2021 52.0 F. 46.0 F.
Sun Apr 11 05:08:04 2021 52.0 F. 46.0 F.
Sun Apr 11 06:08:05 2021 52.0 F. 42.1 F.
Sun Apr 11 07:08:05 2021 52.0 F. 42.1 F.
Sun Apr 11 08:08:05 2021 53.0 F. 39.9 F.
Sun Apr 11 09:08:05 2021 53.0 F. 39.9 F.
Sun Apr 11 10:08:04 2021 55.0 F. 37.9 F.
Sun Apr 11 11:08:05 2021 57.0 F. 37.0 F.
Sun Apr 11 12:08:04 2021 62.0 F. 37.9 F.
Sun Apr 11 13:08:05 2021 65.0 F. 36.0 F.
Sun Apr 11 14:08:05 2021 66.0 F. 35.1 F.
Sun Apr 11 15:08:05 2021 68.0 F. 34.0 F.
Sun Apr 11 16:08:05 2021 71.0 F. 34.0 F.
Sun Apr 11 17:08:04 2021 72.0 F. 36.0 F.
Sun Apr 11 18:08:05 2021 71.0 F. 35.1 F.
Sun Apr 11 19:08:04 2021 71.0 F. 35.1 F.
Sun Apr 11 20:08:04 2021 69.0 F. 35.1 F.
Sun Apr 11 21:08:06 2021 65.0 F. 35.1 F.
Sun Apr 11 22:08:04 2021 55.0 F. 41.0 F.
Sun Apr 11 23:08:05 2021 52.0 F. 42.1 F.
Mon Apr 12 00:08:04 2021 52.0 F. 42.1 F.
Mon Apr 12 01:08:04 2021 47.0 F. 41.0 F.
Mon Apr 12 02:08:04 2021 47.0 F. 42.1 F.
Mon Apr 12 03:08:04 2021 47.0 F. 42.1 F.
Mon Apr 12 04:08:04 2021 46.0 F. 43.0 F.
Mon Apr 12 05:08:05 2021 43.0 F. 42.1 F.
Mon Apr 12 06:08:04 2021 43.0 F. 42.1 F.
Mon Apr 12 07:08:05 2021 43.0 F. 42.1 F.
Mon Apr 12 08:08:05 2021 43.0 F. 41.0 F.
Mon Apr 12 09:08:05 2021 49.0 F. 45.0 F.